Simultaneous Nadir Overpasses (SNOs) Predictions

Prediction of SNOs between GOES-14 and NOAA-20 Satellite Orbit:

Table of predicted SNOs for the next 14.0 days since TLE Epoch: 8/7/2021
Index Date Time (GOES-14) GOES-14 Lat,Lon NOAA-20 Lat,Lon Distance(km) Time Diff (sec)
1 08/07/2021 20:21:22 0.36,-104.37 0.30,-104.59 25.09 80
2 08/08/2021 20:05:18 0.35,-104.38 1.33,-100.06 492.18 80
3 08/10/2021 08:27:05 -0.38,-104.16 -0.13,-105.33 132.27 80
4 08/11/2021 08:05:40 -0.36,-104.16 -1.10,-100.78 384.08 80
5 08/12/2021 20:27:37 0.39,-104.37 -0.02,-106.10 198.40 80
6 08/13/2021 20:11:32 0.38,-104.38 1.01,-101.58 319.01 80
7 08/15/2021 08:33:20 -0.41,-104.18 0.19,-106.84 303.45 80
8 08/16/2021 08:11:55 -0.40,-104.17 -0.84,-102.31 212.44 80
9 08/17/2021 20:33:52 0.43,-104.36 -0.28,-107.63 372.87 80
10 08/18/2021 20:17:47 0.42,-104.36 0.69,-103.09 144.12 80
11 08/20/2021 08:39:34 -0.45,-104.19 0.50,-108.36 476.14 80
